Погода в Усаклах

Россия / Республика Башкортостан     54°21′50″N   57°03′46″E
темп.,
°C
ветер,
м/с
пор.,
м/с
влажн.,
%
обл.,
%
осадки,
мм/ч
давл.,
гПа
погр.,
м
15 мая, сб
сб1523:00+17ююв22532 0.0 102532
02:00+15юв225510 0.0 102529
05:00+14ююв225686 0.0 102533
08:00+19ююв245237 0.0 1025131
11:00+26зюз35322 0.0 1024896
14:00+27зюз45295 0.0 10231505
17:00+27зюз353358 0.0 10231466
20:00+22ююз22555 0.0 102315
16 мая, вс
вс1623:00+18ююв22575 0.0 102332
02:00+16юв22605 0.0 102325
05:00+15юв22660 0.0 102420
08:00+20ююв23535 0.0 1023146
11:00+26зюз23335 0.0 10231102
14:00+28з45275 0.0 10222442
17:00+27з45290 0.0 10211935
20:00+23ю22490 0.0 102113
17 мая, пн
пн1723:00+18юв22530 0.0 102128
02:00+16ююв23673 0.0 102252
05:00+15юв226623 0.0 102227
08:00+20ю245514 0.0 1022183
11:00+26зюз343312 0.0 1022966
14:00+28з44315 0.0 10212355
17:00+27з353470 0.0 10202321
20:00+23юз355527 0.0 1020133
18 мая, вт
вт1823:00+17ю366282 0.2 102195
02:00+16юв2369100 0.0 102049
05:00+15ююв2270100 0.0 102017
08:00+20вюв11550 0.0 1020141
11:00+26зсз223815 0.0 1019868
14:00+28сз333311 0.0 10182622
17:00+28зсз333215 0.0 10182341
20:00+19сз41067100 0.4 1019302
19 мая, ср
ср1923:00+16св116993 0.9 101911
02:00+16юв1181100 0.3 101911
05:00+15вюв218487 0.3 101915
08:00+18в237495 0.3 1019167
11:00+25юв124337 0.3 10191068
14:00+26юз1139100 0.1 10192577
17:00+16юз61094100 20.6 1022612
20:00+16вюв398963 6.1 1020252